Torna al catalogo

Slippers2Sat

AttivoScienzaSSO
NORAD 66996·PAYLOAD·🇨🇳 China

Lanciato Dec 10, 2025 da Jiuquan Satellite Launch Center

Loading…

Prossimi Passaggi (prossime 24 ore)

TLE

AggiornatoSource: Space-Track

Epoca: Sep 14, 2026, 11:22 UTC

1 66996U 25292D   26257.47381954  .00002254  00000-0  15645-3 0  9996
2 66996  97.6253 332.2512 0015531  61.7177 298.5616 15.06498173 41884

Traccia Slippers2Sat in tempo reale con AllMySat

Download on the App Store